Weather History for Del Bajio, Mexico

Change the Weather History Date:

Sunday, February 16, 2014

  Actual Average Record
Temperature  
Mean Temperature 64 °F -  
Max Temperature 84 °F 78 °F 87 °F (2006)
Min Temperature 44 °F 44 °F 30 °F (1998)
Degree Days  
Heating Degree Days 1    
Growing Degree Days 14 (Base 50)    
Moisture  
Dew Point 24 °F    
Average Humidity 24    
Maximum Humidity 53    
Minimum Humidity 10    
Precipitation  
Precipitation 0.00 in - - ()
Sea Level Pressure  
Sea Level Pressure 30.13 in    
Wind  
Wind Speed 2 mph ()    
Max Wind Speed 9 mph    
Max Gust Speed -    
Visibility 9.0 miles    
Events      
Averages and records for this station are not official NWS values.
T = Trace of Precipitation, MM = Missing Value Source: Averaged Metar Reports

Daily Weather History Graph

Daily Weather History Graph

Search for Another Location

Airport:

Trip Planner

Search our weather history database for the weather conditions in past years. The results will help you decide how hot, cold, wet, or windy it might be!

Date:

Astronomy

Feb. 16, 2014 Rise Set
Actual Time 7:15 AM CST 6:44 PM CST
Civil Twilight 6:52 AM CST 7:07 PM CST
Nautical Twilight 6:26 AM CST 7:33 PM CST
Astronomical Twilight 6:00 AM CST 7:59 PM CST
Moon 8:22 PM CST (2/16) 8:03 AM CST (2/16)
Length of Visible Light 12h 14m
Length of Day
11h 29m
Full, 97% of the Moon is Illuminated
Feb 16
Full
Feb 22
Last Quarter
Mar 1
New
Mar 8
First Quarter
Mar 16
Full

Hourly Weather History & Observations

Time (CST) Temp. Dew Point Humidity Pressure Visibility Wind Dir Wind Speed Gust Speed Precip Events Conditions
12:45 AM 57.2 °F 28.4 °F 33% 30.30 in 8.0 mi Calm Calm - N/A   Scattered Clouds
1:43 AM 57.2 °F 26.6 °F 31% 30.29 in 8.0 mi East 6.9 mph - N/A   Scattered Clouds
2:45 AM 53.6 °F 28.4 °F 38% 29.89 in 8.0 mi Calm Calm - N/A   Scattered Clouds
4:47 AM 51.8 °F 26.6 °F 38% 30.28 in 8.0 mi NE 6.9 mph - N/A   Scattered Clouds
5:50 AM 48.2 °F 26.6 °F 43% 29.91 in 8.0 mi Calm Calm - N/A   Scattered Clouds
6:44 AM 44.6 °F 28.4 °F 53% 30.29 in 8.0 mi Calm Calm - N/A   Partly Cloudy
7:45 AM 46.4 °F 28.4 °F 50% 30.30 in 10.0 mi Calm Calm - N/A   Partly Cloudy
8:44 AM 59.0 °F 26.6 °F 29% 30.02 in 10.0 mi Calm Calm - N/A   Clear
9:46 AM 66.2 °F 28.4 °F 24% 30.33 in 10.0 mi Calm Calm - N/A   Clear
10:40 AM 71.6 °F 26.6 °F 19% 30.33 in 10.0 mi Calm Calm - N/A   Clear
11:43 AM 78.8 °F 21.2 °F 12% 29.88 in 10.0 mi South 4.6 mph - N/A   Clear
12:42 PM 69.8 °F 21.2 °F 16% 30.30 in 10.0 mi South 6.9 mph - N/A   Clear
1:55 PM 84.2 °F 21.2 °F 10% 30.24 in 10.0 mi SSE 3.5 mph - N/A   Clear
2:43 PM 84.2 °F 21.2 °F 10% 29.78 in 10.0 mi ENE 3.5 mph - N/A   Clear
3:41 PM 84.2 °F 21.2 °F 10% 30.18 in 10.0 mi Calm Calm - N/A   Clear
4:48 PM 75.2 °F 21.2 °F 13% 30.18 in 10.0 mi West 5.8 mph - N/A   Partly Cloudy
5:41 PM 82.4 °F 21.2 °F 10% 29.80 in 10.0 mi Calm Calm - N/A   Scattered Clouds
6:44 PM 75.2 °F 19.4 °F 12% 30.18 in 10.0 mi Calm Calm - N/A   Scattered Clouds
7:40 PM 69.8 °F 19.4 °F 15% 30.21 in 8.0 mi Calm Calm - N/A   Scattered Clouds
8:40 PM 64.4 °F 23.0 °F 21% 29.90 in 8.0 mi NE 6.9 mph - N/A   Partly Cloudy
9:43 PM 60.8 °F 23.0 °F 23% 30.24 in 8.0 mi NNE 9.2 mph - N/A   Partly Cloudy
10:45 PM 60.8 °F 21.2 °F 22% 30.24 in 8.0 mi NE 6.9 mph - N/A   Clear
11:44 PM 55.4 °F 23.0 °F 29% 29.92 in 8.0 mi Calm Calm - N/A   Clear